Location: Recife
(8.0585°S, 34.8848°W)
Time: 07:14:54
(UTC-03:00)

Vanguard 1 Rocket - Pass Details

Date: 14 April 2026
Orbit: 655 x 4212 km, 34.3° (Epoch: 13 May)

Event Time Altitude Azimuth Distance (km) Brightness Sun altitude
Rises 05:27:08 0° 325° (NW) 4,794 10.8 0.5°
Reaches altitude 10° 05:31:42 10° 339° (NNW) 3,229 10.1 1.6°
Maximum altitude 05:37:10 22° 27° (NNE) 1,884 9.6 2.9°
Drops below altitude 10° 05:41:07 10° 79° (E) 2,265 12.4 3.9°
Sets 05:43:39 0° 96° (E) 3,041 11.9 4.5°
